Home   Weather   Viedma   Past weeks
Flag for Argentina

Past Weather in Viedma, Rio Negro, Argentina — Yesterday and Last 2 Weeks

Now
54 °F

Overcast.


Feels Like: 52 °F
Forecast: 56 / 39 °F
Wind: 7 mph from Northeast

Location: Viedma Aerodrome

Current Time: Oct 15, 2019 at 3:34:40 pm

Latest Report: Oct 15, 2019 at 2:00 pm


Visibility: 19 mi

Pressure: 30.47 "Hg

Humidity: 60%

Dew Point: 40 °F

Location of ViedmaLocation

Past Weather in Viedma — Graph

°F

Viedma Temperature Yesterday

Maximum temperature yesterday: 55 °F (at 3:00 pm)
Minimum temperature yesterday: 40 °F (at 7:00 am)
Average temperature yesterday: 47 °F

High & Low Weather Summary for the Past Weeks

 TemperatureHumidityPressure
High80 °F (Oct 10, 3:00 pm)91% (Oct 13, 6:00 am)30.62 "Hg (Oct 13, 6:00 am)
Low30 °F (Oct 2, 6:00 am)17% (Sep 30, 4:00 pm)29.53 "Hg (Oct 10, 6:00 pm)
Average55 °F50%30.05 "Hg
* Reported Sep 30 2:00 pm — Oct 15 2:00 pm, Viedma. Weather by CustomWeather, © 2019

Note: Actual official high and low records may vary slightly from our data, if they occured in-between our weather recording intervals... More about our weather records

Advertising

Viedma Weather History for the Previous 24 Hours

Scroll right to see more
 ConditionsComfort  
Time TempWeatherWind HumidityBarometerVisibility
2:00 pm
Tue, Oct 15
54 °FOvercast.7 mph60%30.47 "Hg19 mi
1:00 pm51 °FOvercast.6 mph65%30.48 "Hg19 mi
12:00 pm50 °FOvercast.6 mph68%30.50 "Hg19 mi
11:00 am49 °FOvercast.7 mph69%30.52 "Hg19 mi
10:00 am49 °FOvercast.N/A70%30.53 "Hg19 mi
9:00 am49 °FOvercast.8 mph67%30.53 "Hg19 mi
8:00 am46 °FOvercast.3 mph72%30.54 "Hg19 mi
7:00 am45 °FLight rain. Overcast.3 mph72%30.53 "Hg12 mi
6:00 am45 °FOvercast.5 mph72%30.54 "Hg19 mi
5:00 am44 °FOvercast.N/A71%30.54 "Hg19 mi
4:00 am44 °FOvercast.3 mph73%30.55 "Hg19 mi
3:00 am44 °FOvercast.5 mph70%30.57 "Hg19 mi
2:00 am43 °FOvercast.3 mph73%30.58 "Hg19 mi
1:00 am42 °FOvercast.3 mph73%30.59 "Hg19 mi
12:00 am41 °FPassing clouds.5 mph71%30.59 "Hg19 mi
11:00 pm
Mon, Oct 14
41 °FPassing clouds.3 mph71%30.60 "Hg19 mi
10:00 pm44 °FPassing clouds.7 mph65%30.60 "Hg19 mi
9:00 pm46 °FOvercast.8 mph60%30.60 "Hg19 mi
8:00 pm47 °FOvercast.13 mph57%30.58 "Hg19 mi
7:00 pm49 °FOvercast.14 mph52%30.59 "Hg19 mi
6:00 pm51 °FOvercast.16 mph50%30.57 "Hg19 mi
5:00 pm54 °FOvercast.16 mph44%30.56 "Hg19 mi
4:00 pm54 °FOvercast.17 mph44%30.56 "Hg19 mi
3:00 pm55 °FOvercast.14 mph43%30.57 "Hg19 mi
Weather by CustomWeather, © 2019

See weather overview